TimeCST,TemperatureF,Dew PointF,Humidity,Sea Level PressureIn,VisibilityMPH,Wind Direction,Wind SpeedMPH,Gust SpeedMPH,PrecipitationIn,Events,Conditions,WindDirDegrees,DateUTC
12:54 AM,39.0,28.0,65,30.03,10.0,SSE,10.4,-,N/A,,Clear,160,2012-11-20 06:54:00
1:54 AM,39.0,28.9,67,30.01,10.0,South,17.3,24.2,N/A,,Clear,170,2012-11-20 07:54:00
2:54 AM,41.0,28.0,60,29.99,10.0,South,9.2,20.7,N/A,,Clear,180,2012-11-20 08:54:00
3:54 AM,41.0,28.0,60,29.97,10.0,South,11.5,20.7,N/A,,Clear,180,2012-11-20 09:54:00
4:54 AM,41.0,27.0,57,29.96,10.0,SSW,13.8,26.5,N/A,,Clear,200,2012-11-20 10:54:00
5:54 AM,41.0,26.1,55,29.96,10.0,SSW,9.2,17.3,N/A,,Clear,200,2012-11-20 11:54:00
6:54 AM,41.0,26.1,55,29.95,10.0,SW,11.5,18.4,N/A,,Clear,220,2012-11-20 12:54:00
7:54 AM,39.0,26.1,60,29.94,10.0,SSE,8.1,-,N/A,,Clear,160,2012-11-20 13:54:00
8:54 AM,39.0,27.0,62,29.94,10.0,South,17.3,25.3,N/A,,Clear,170,2012-11-20 14:54:00
9:54 AM,39.9,28.0,63,29.93,10.0,South,11.5,-,N/A,,Clear,170,2012-11-20 15:54:00
10:54 AM,43.0,28.9,58,29.91,10.0,South,16.1,-,N/A,,Clear,180,2012-11-20 16:54:00
11:54 AM,43.0,30.0,60,29.90,10.0,SSW,12.7,-,N/A,,Clear,200,2012-11-20 17:54:00
12:54 PM,45.0,32.0,60,29.86,10.0,SSW,15.0,-,N/A,,Clear,200,2012-11-20 18:54:00
1:54 PM,46.9,33.1,59,29.85,10.0,SSW,12.7,-,N/A,,Clear,200,2012-11-20 19:54:00
2:54 PM,46.9,34.0,61,29.83,10.0,SSW,15.0,-,N/A,,Clear,200,2012-11-20 20:54:00
3:54 PM,46.0,34.0,63,29.84,10.0,SSW,13.8,-,N/A,,Clear,200,2012-11-20 21:54:00
4:54 PM,44.1,34.0,68,29.86,10.0,SSW,6.9,-,N/A,,Clear,210,2012-11-20 22:54:00
5:54 PM,42.1,34.0,73,29.86,10.0,SW,11.5,-,N/A,,Clear,220,2012-11-20 23:54:00
6:54 PM,41.0,33.1,73,29.87,10.0,SSW,9.2,-,N/A,,Clear,210,2012-11-21 00:54:00
7:54 PM,42.1,33.1,70,29.86,10.0,SW,10.4,-,N/A,,Clear,220,2012-11-21 01:54:00
8:54 PM,42.1,34.0,73,29.87,10.0,SW,9.2,-,N/A,,Clear,230,2012-11-21 02:54:00
9:54 PM,42.1,34.0,73,29.88,10.0,SW,10.4,-,N/A,,Clear,230,2012-11-21 03:54:00
10:54 PM,42.1,34.0,73,29.88,10.0,SW,10.4,-,N/A,,Clear,220,2012-11-21 04:54:00
11:54 PM,41.0,34.0,76,29.87,10.0,Calm,Calm,-,N/A,,Clear,0,2012-11-21 05:54:00